Regional Weather Roundup
Issued by NWS Jackson, KY

Home | Current Version | Previous Version | Text Only | Print | Product List | Glossary Off
Versions: 1 2 3 4 5 6 7 8 9 10 11 12 13 14 15 16 17 18 19 20 21 22 23 24 25 26 27 28 29 30 31 32 33 34 35 36 37 38 39 40 41 42 43 44 45 46 47 48 49 50

000
ASUS43 KJKL 312010
RWRJKL

EAST KENTUCKY HOURLY WEATHER ROUNDUP
NATIONAL WEATHER SERVICE JACKSON KY
400 PM EDT FRI OCT 31 2014

NOTE: "FAIR" INDICATES FEW OR NO CLOUDS BELOW 12,000 FEET WITH
NO SIGNIFICANT WEATHER AND/OR OBSTRUCTIONS TO VISIBILITY.

* THESE REPORTS ARE NOT UNDER NWS QUALITY CONTROL AND MAY NOT
  REPORT WEATHER SUCH AS PRECIPITATION AND FOG.

KYZ079-080-083-085-087-088-110-112-115-119-120-312100
...EASTERN KENTUCKY...

CITY           SKY/WX    TMP DP  RH WIND       PRES   REMARKS
JACKSON        CLOUDY    45  42  89 CALM      29.87F
LONDON         LGT RAIN  46  42  86 W9        29.89F FOG
SOMERSET*      LGT RAIN  45  43  93 W6        29.92F
MONTICELLO*    CLOUDY    46  45  93 NW12      29.94F FOG
WILLIAMSBURG*  CLOUDY    43  43 100 MISG      29.91S
MIDDLESBORO*   CLOUDY    46  44  95 CALM      29.90F FOG
HARLAN APT*    CLOUDY    43  43 100 SE5       29.87F
BLACK MTN*       N/A     36  36 100 SW2         N/A
PIKEVILLE APT* LGT RAIN  43  41  93 CALM      29.86F
BIG SANDY*     LGT RAIN  44  42  92 CALM      29.87F
MOREHEAD APT*  LGT RAIN  45  43  93 SW6       29.89F
$$

KYZ035-036-041-042-044-050-067-078-099-312100
...CENTRAL KENTUCKY...

CITY           SKY/WX    TMP DP  RH WIND       PRES   REMARKS
MT STERLING*   RAIN      43  43 100 NW9G17    29.90R
FLEMING/MASON* LGT RAIN  43  41  93 NW8G16    29.88S
DANVILLE*      LGT RAIN  41  37  87 NW22G31   29.94R
RICHMOND*      CLOUDY    45  41  87 W14       29.89F
LEXINGTON      LGT RAIN  43  37  79 NW21G31   29.93R
FRANKFORT      LGT RAIN  38  34  85 NW16G31   29.96R WCI  29
$$

KYZ091>093-OHZ055-061-077-WVZ005-015-034-035-042-312100
...SOUTHERN OHIO/WEST VIRGINIA...

CITY           SKY/WX    TMP DP  RH WIND       PRES   REMARKS
COVINGTON      LGT RAIN  41  36  82 NW15G22   29.93R
COLUMBUS       LGT RAIN  45  39  79 NW7       29.85S
DAYTON         LGT RAIN  42  38  85 NW15      29.91S
WILMINGTON     LGT RAIN  40  36  86 NW16      29.88R WCI  31
HUNTINGTON     LGT RAIN  44  41  89 SW5       29.86F
CHARLESTON     DRIZZLE   47  36  65 CALM      29.85F
PINEVILLE*     LGT RAIN  46  43  89 MISG      29.89F
BECKLEY        LGT RAIN  44  33  65 W8        29.82F
BLUEFIELD      CLOUDY    44  39  82 W5        29.82F
$$

VAZ002-007-008-TNZ017-027-036-066-071-312100
...SOUTHWEST VIRGINIA/EAST TENNESSEE...

CITY           SKY/WX    TMP DP  RH WIND       PRES   REMARKS
WISE*          LGT RAIN  41  41 100 W6        29.85S
JONESVILLE*    LGT RAIN  45  43  93 W6        29.90F
ABINGDON*      RAIN      45  41  86 W6        29.86S
BRISTOL        LGT RAIN  47  41  80 N3        29.87F
KNOXVILLE      LGT RAIN  50  41  71 W9        29.90S
OAK RIDGE      CLOUDY    52  40  63 W7        29.91F
CROSSVILLE     CLOUDY    47  41  80 W9        29.92F
NASHVILLE      CLOUDY    43  40  89 NW17G29   30.04R
$$

...KEY TO REMARKS...
VSB - VISIBILITY IN MILES
WCI - WIND CHILL INDEX
HX  - HEAT INDEX

$$



USA.gov is the U.S. government's official web portal to all federal, state and local government web resources and services.